Showing default

GHGSAT-C4, 52746

Orbit data source: Space-Track

GHGSAT-C4, 52746 is a payload satellite owned by GHG (CA) in SSO that was launched on Wed, 25 May 2022 UTC via an FALCON 9 launch vehicle from the Air Force Eastern Test Range (AFETR). Payload-class satellites include a variety of spacecraft equipped with specific instruments for various scientific and technological missions. These include communications satellites like Starlink; space stations such as the ISS; scientific satellites like the Hubble; Earth observation satellites from companies like Planet Labs, Umbra, and HawkEye 360; GPS; miniature CubeSats for education and research; and military/defense satellites.

Loading next visibility...
Identifier
52746, 2022-057Q
Orbit
SSO
Country
Flag of CACA
Related business
Manufacturer
UTIAS-SFL
Mission
Operational Commercial Earth Obs Sci
Bus & Motor
NEMO-V1, Unknown motor
Mass
15 kg wet, 15 kg dry
Launch date (UTC)
2022-05-25 (4 years ago)
Launch vehicle
FALCON 9
Launch site
Air Force Eastern Test Range (AFETR)
Object type
Payload
Rocket body
Debris
Shape & HBR
Box, 1.0 m
Radar Cross Section
0.100 m², Medium (>0.1 m² and < 1m²)

Expand to show TLE details & history
Last TLE update: 21 hours ago

TLE from 21 hours ago
0 GHGSAT-C4
1 52746U 22057Q   26172.56387010  .00005455  00000-0  16627-3 0  9992
2 52746  97.6531 317.2108 0007677  92.3441 267.8681 15.34386787226212
Epoch: 2026-06-21T13:31Z
TLE epoch observation values (Epoch: 2026-06-21T13:31:58.376Z)
Latitude
0.00004°
Longitude
-155.54477°
Altitude
466.045 km
Speed
7.633 km/s
True Right ascension
21h 08m 50s
True Declination
0° 00' 00"
Sunlit
Object was in full shadow at epoch
Visualization orbit readout
Latitude
Unknown
Longitude
Unknown
Altitude
Unknown
Speed
Unknown
Apparent Right ascension
Unknown
Apparent Declination
Unknown
Sunlit
N/A
Visualization observer readout
Local Sidereal Time
21:54:14
Azimuth
Unknown
Elevation
Unknown
Doppler factor
Unknown
Orbital elements
Apogee altitude
464.949 km
Perigee altitude
454.451 km
Semi-major axis
6,837.837 km
Eccentricity
0.00077
Inclination
97.6531°
RAAN
317.2108°
Arg. of periapsis
92.3441°
True anomaly
267.78019°
Mean anomaly
267.8681°
Eccentric anomaly
267.82415°
Mean motion
3.83853 °/min
Orbital period
93.79 mins
BSTAR
0.00016627
Loading maneuver chart data...
Computing Atmospheric mass density...
Loading historical data...
Loading historical data...
Loading historical data...
Loading historical data...
Loading historical data...
Loading historical data...
Loading historical data...

Documentation

Showing up to 5 results
|